Location: Meriden
(44.0740°N, 93.3870°W)
Time: 17:45:54
(UTC-06:00)

Amateur Radio Satellites - All Passes

Search period start: 03 December 2016 17:15
Search period end: 04 December 2016 17:15
Location: Meriden, 44.0740°N, 93.3870°W

Satellite Date Start Highest point End Downlink Frequencies (MHz)
Time Altitude Azimuth
CINEMA 3 03 Dec 17:20:00 17:22:26 14° 59° (ENE) 17:24:54 145.822/145.860
O/OREOS (USA 219) 03 Dec 17:27:31 17:31:52 42° 299° (WNW) 17:36:13 437.305
CUBESAT XI-V 03 Dec 17:29:43 17:34:23 81° 285° (WNW) 17:39:03 437.345
Cubesat XI-IV 03 Dec 17:36:08 17:41:31 82° 74° (ENE) 17:46:56 437.490
MOZHAYETS 4 03 Dec 17:37:02 17:39:01 13° 300° (WNW) 17:41:01
NOAA 15 03 Dec 17:43:32 17:48:46 77° 256° (WSW) 17:54:02 137.62
AIST 2 03 Dec 17:45:36 17:49:50 77° 238° (WSW) 17:54:03 435.215
RS-15 03 Dec 17:46:55 17:58:59 63° 245° (WSW) 18:10:40 29.354- 29.394
LilacSat-2 03 Dec 17:48:37 17:52:27 64° 259° (W) 17:56:17 437.200
Cosmos 2491 03 Dec 18:14:35 18:23:18 68° 78° (ENE) 18:31:57 435.465 / 435.565
CUTE 1.7 + AOD 2 03 Dec 18:15:08 18:18:27 23° 67° (ENE) 18:21:46 437.475
HO-68 03 Dec 18:17:10 18:23:54 46° 64° (ENE) 18:30:40 435.675
ISS 03 Dec 18:18:01 18:21:17 66° 331° (NNW) 18:24:35 145.825
STRAND 1 03 Dec 18:22:26 18:25:08 14° 89° (E) 18:27:49 437.568
GOMX 1 03 Dec 18:30:04 18:33:11 18° 271° (W) 18:36:27 467.674
CANX-2 03 Dec 18:31:49 18:35:45 39° 71° (ENE) 18:39:40 2200.000
NOAA 18 03 Dec 18:36:38 18:41:56 46° 261° (W) 18:47:16 137.9125
STARS 03 Dec 18:41:39 18:43:35 13° 300° (WNW) 18:45:32 437.465
YUBILEINY 03 Dec 18:45:00 18:52:58 42° 86° (E) 19:00:58 435.215
UWE-3 03 Dec 18:45:12 18:47:59 16° 62° (ENE) 18:50:44 435.000/436.395/437.385
AAUSAT CUBESAT 2 03 Dec 18:52:35 18:55:39 21° 66° (ENE) 18:58:43 437.432
CUTE-I 03 Dec 18:52:41 18:56:51 23° 267° (W) 19:01:02 437.470
DOVE 4 03 Dec 18:53:44 18:57:37 25° 268° (W) 19:01:44 437.250
CINEMA 3 03 Dec 18:53:54 18:58:49 85° 259° (W) 19:03:52 145.822/145.860
SEEDS 03 Dec 19:03:01 19:07:03 50° 73° (ENE) 19:11:05 437.485
CUBESAT XI-V 03 Dec 19:10:20 19:10:58 10° 302° (WNW) 19:11:38 437.345
PCSat 03 Dec 19:18:16 19:21:30 16° 35° (NE) 19:24:43 145.827
AIST 1 03 Dec 19:18:19 19:21:19 19° 86° (E) 19:24:20
COMPASS 1 03 Dec 19:18:50 19:22:50 50° 73° (ENE) 19:26:50 437.405
Cubesat XI-IV 03 Dec 19:19:36 19:22:13 14° 271° (W) 19:24:52 437.490
CUBEBUG 2 03 Dec 19:30:50 19:35:32 63° 74° (ENE) 19:40:14 437.445
ZACube-1 03 Dec 19:31:24 19:35:14 27° 67° (ENE) 19:39:01 437.345
FUNcube-1 03 Dec 19:40:34 19:44:32 30° 68° (ENE) 19:48:28 145.935
Cosmos 2504 03 Dec 19:41:07 19:48:53 46° 87° (E) 19:57:06 435.465 / 435.565
CUTE 1.7 + AOD 2 03 Dec 19:50:17 19:54:08 33° 264° (W) 19:57:58 437.475
ISS 03 Dec 19:55:29 19:58:14 23° 351° (N) 20:00:59 145.825
STRAND 1 03 Dec 19:59:45 20:04:51 73° 287° (WNW) 20:09:55 437.568
RS-15 03 Dec 20:03:27 20:08:42 14° 267° (W) 20:13:54 29.354- 29.394
HO-68 03 Dec 20:05:09 20:11:42 38° 263° (W) 20:18:18 435.675
CANX-2 03 Dec 20:08:41 20:11:44 19° 267° (W) 20:14:48 2200.000
Cosmos 2491 03 Dec 20:12:27 20:19:23 28° 279° (W) 20:26:18 435.465 / 435.565
Oscar 11 03 Dec 20:14:27 20:18:43 64° 74° (ENE) 20:23:00 145.826/435.025
DELFI C3 03 Dec 20:15:10 20:18:15 22° 67° (ENE) 20:21:20 145.870
UWE-3 03 Dec 20:19:16 20:23:55 65° 259° (W) 20:28:32 435.000/436.395/437.385
CUSAT 1 03 Dec 20:24:34 20:27:48 44° 79° (ENE) 20:31:54 437.405
AAUSAT CUBESAT 2 03 Dec 20:27:07 20:30:54 35° 263° (W) 20:34:42 437.432
CINEMA 3 03 Dec 20:36:06 20:36:41 10° 275° (W) 20:37:17 145.822/145.860
SEEDS 03 Dec 20:40:39 20:43:01 15° 269° (W) 20:45:25 437.485
YUBILEINY 03 Dec 20:41:26 20:49:40 46° 287° (WNW) 20:58:02 435.215
DANDE 03 Dec 20:45:31 20:46:43 12° 73° (ENE) 20:47:59 436.750
AIST 1 03 Dec 20:54:34 20:58:36 39° 284° (WNW) 21:02:41
SO-50 03 Dec 20:56:09 21:00:53 68° 122° (ESE) 21:05:35 436.795
COMPASS 1 03 Dec 20:56:22 20:58:40 14° 269° (W) 21:00:58 437.405
PCSat 03 Dec 21:00:28 21:05:55 70° 57° (ENE) 21:11:19 145.827
ZACube-1 03 Dec 21:07:16 21:11:23 33° 264° (W) 21:15:29 437.345
CUBEBUG 2 03 Dec 21:09:48 21:12:32 15° 271° (W) 21:15:17 437.445
FUNcube-1 03 Dec 21:16:47 21:20:44 28° 265° (W) 21:24:39 145.935
UNISAT 6 03 Dec 21:19:39 21:21:55 14° 89° (E) 21:24:09 437.425
HUMSAT D 03 Dec 21:22:45 21:26:58 70° 74° (ENE) 21:31:08 437.325/437.525
ISS 03 Dec 21:32:40 21:35:28 24° 11° (N) 21:38:16 145.825
Cosmos 2504 03 Dec 21:34:30 21:42:19 43° 289° (WNW) 21:50:36 435.465 / 435.565
PRISM 03 Dec 21:34:32 21:38:42 87° 95° (E) 21:42:53 437.425
STRAND 1 03 Dec 21:41:55 21:43:08 11° 305° (NW) 21:44:19 437.568
TIGRISAT 03 Dec 21:49:22 21:53:06 26° 94° (E) 21:56:45 435.000
DELFI C3 03 Dec 21:49:29 21:52:55 29° 264° (W) 21:56:24 145.870
ANTELSAT 03 Dec 21:50:03 21:53:53 28° 95° (E) 21:57:37 437.575/2403.000
Oscar 11 03 Dec 21:53:26 21:55:16 12° 271° (W) 21:57:07 145.826/435.025
ESTCUBE 1 03 Dec 21:53:55 21:57:31 24° 66° (ENE) 22:01:07 437.505/2401.250
CUSAT 1 03 Dec 22:08:23 22:09:35 11° 267° (W) 22:10:50 437.405
AISAT 03 Dec 22:12:25 22:15:22 18° 63° (ENE) 22:18:20 437.250
50 SAT 03 Dec 22:27:15 22:29:15 15° 65° (ENE) 22:31:15 437.505
DANDE 03 Dec 22:27:19 22:29:20 19° 265° (W) 22:31:35 436.750
SO-50 03 Dec 22:38:10 22:41:48 21° 321° (NW) 22:45:24 436.795
JAS-2 03 Dec 22:42:46 22:46:35 20° 93° (E) 22:50:27 435.910
CUBEBUG 1 03 Dec 22:44:01 22:48:11 47° 71° (ENE) 22:52:25 437.445
PCSat 03 Dec 22:45:09 22:48:43 18° 255° (WSW) 22:52:17 145.827
VELOX 1 03 Dec 22:48:11 22:52:14 37° 69° (ENE) 22:56:19 145.980
QB50P1 03 Dec 22:49:08 22:51:19 14° 90° (E) 22:53:28 145.935-145.965
UNISAT 6 03 Dec 22:54:40 22:59:04 59° 287° (WNW) 23:03:19 437.425
DUCHIFAT 1 03 Dec 22:55:01 22:57:07 13° 90° (E) 22:59:12 145.980
Cosmos 2499 03 Dec 22:55:45 22:57:51 11° 70° (ENE) 22:59:58 435.465 / 435.565
HUMSAT D 03 Dec 23:01:54 23:03:01 11° 271° (W) 23:04:08 437.325/437.525
ISS 03 Dec 23:09:02 23:12:22 76° 30° (NNE) 23:15:40 145.825
POPSAT HIP 1 03 Dec 23:09:26 23:12:48 22° 94° (E) 23:16:06 437.405
DX 1 03 Dec 23:10:18 23:14:15 35° 68° (ENE) 23:18:12 434.975-435.025
PRISM 03 Dec 23:13:12 23:13:20 10° 301° (WNW) 23:13:28 437.425
UKube-1 03 Dec 23:22:36 23:26:30 35° 69° (ENE) 23:30:27 .
GONETS M04 03 Dec 23:25:24 23:30:38 18° 76° (ENE) 23:35:51
TIGRISAT 03 Dec 23:25:54 23:29:48 31° 292° (WNW) 23:33:37 435.000
ANTELSAT 03 Dec 23:26:43 23:30:33 29° 293° (WNW) 23:34:17 437.575/2403.000
ESTCUBE 1 03 Dec 23:30:03 23:34:09 35° 263° (W) 23:38:16 437.505/2401.250
TISAT 1 03 Dec 23:37:53 23:40:17 15° 62° (ENE) 23:42:43 437.305
SPROUT 03 Dec 23:40:16 23:44:34 84° 73° (ENE) 23:48:55 437.525
AISAT 03 Dec 23:47:08 23:51:27 51° 261° (W) 23:55:47 437.250
50 SAT 03 Dec 23:58:58 00:02:14 37° 261° (W) 00:05:33 437.505
BUGSAT 1 04 Dec 00:01:21 00:04:58 27° 95° (E) 00:08:33 437.445
NANOSAT C BR1 04 Dec 00:05:21 00:09:36 86° 98° (E) 00:13:49 145.865
QB50P2 04 Dec 00:08:40 00:12:57 76° 285° (WNW) 00:17:09 145.880/145.840
POLYITAN 1 04 Dec 00:09:17 00:13:33 80° 286° (WNW) 00:17:46 437.675
CUBEBUG 1 04 Dec 00:21:52 00:24:44 17° 268° (W) 00:27:38 437.445
QB50P1 04 Dec 00:23:15 00:27:26 56° 287° (WNW) 00:31:34 145.935-145.965
ITUPSAT 1 04 Dec 00:25:16 00:26:49 11° 57° (ENE) 00:28:23 437.325
VELOX 1 04 Dec 00:25:20 00:28:47 22° 266° (W) 00:32:17 145.980
JAS-2 04 Dec 00:27:02 00:32:02 50° 290° (WNW) 00:37:08 435.910
DUCHIFAT 1 04 Dec 00:29:00 00:33:10 56° 287° (WNW) 00:37:16 145.980
Oscar 19 04 Dec 00:29:44 00:32:41 15° 90° (E) 00:35:38 437.125/150
Cosmos 2499 04 Dec 00:40:39 00:48:55 59° 91° (E) 00:57:35 435.465 / 435.565
POPSAT HIP 1 04 Dec 00:44:47 00:48:39 34° 291° (WNW) 00:52:28 437.405
ISS 04 Dec 00:46:27 00:48:29 15° 227° (SW) 00:50:32 145.825
DX 1 04 Dec 00:47:02 00:50:30 23° 266° (W) 00:54:00 434.975-435.025
UKube-1 04 Dec 00:59:13 01:02:37 23° 266° (W) 01:06:03 .
AUBIESAT-1 04 Dec 01:06:57 01:10:48 39° 64° (ENE) 01:14:54 437.475
TISAT 1 04 Dec 01:11:17 01:15:27 57° 259° (W) 01:19:41 437.305
M-CUBED/EXP-1 PRIME 04 Dec 01:16:49 01:20:48 61° 68° (ENE) 01:25:09 437.505
GONETS M04 04 Dec 01:17:21 01:26:05 85° 97° (E) 01:34:49
MOZHAYETS 4 04 Dec 01:27:53 01:29:01 11° 58° (ENE) 01:30:08
SWISSCUBE 04 Dec 01:29:00 01:33:36 49° 71° (ENE) 01:38:12 437.505
BEESAT 04 Dec 01:33:20 01:37:55 49° 71° (ENE) 01:42:32 436.000
BUGSAT 1 04 Dec 01:36:41 01:40:17 28° 292° (WNW) 01:43:49 437.445
Gurwin Techsat 1B 04 Dec 01:43:45 01:48:43 37° 97° (E) 01:53:36 435.225
NANOSAT C BR1 04 Dec 01:43:57 01:44:38 10° 301° (WNW) 01:45:19 145.865
O/OREOS (USA 219) 04 Dec 01:56:37 02:01:01 51° 63° (ENE) 02:05:22 437.305
ITUPSAT 1 04 Dec 01:59:05 02:03:53 85° 75° (ENE) 02:08:42 437.325
Oscar 19 04 Dec 02:07:20 02:12:32 72° 287° (WNW) 02:17:41 437.125/150
KKS-1 04 Dec 02:14:28 02:16:53 15° 60° (ENE) 02:19:18 437.445
PHONESAT 2.4 04 Dec 02:24:03 02:26:20 25° 165° (SSE) 02:28:35 2401.200-2431.200
ITAMSAT 1 04 Dec 02:30:59 02:35:07 24° 94° (E) 02:39:12 435.822/435.867
Cosmos 2499 04 Dec 02:34:53 02:42:31 35° 292° (WNW) 02:50:27 435.465 / 435.565
AO-85 04 Dec 02:39:22 02:44:13 59° 121° (ESE) 02:48:44 145.980
AUBIESAT-1 04 Dec 02:42:17 02:45:22 21° 263° (W) 02:48:38 437.475
AO-7 04 Dec 02:53:30 03:00:31 29° 94° (E) 03:07:29 29.400- 29.500
M-CUBED/EXP-1 PRIME 04 Dec 02:53:49 02:55:46 13° 267° (W) 02:57:47 437.505
CUBESAT XI-V 04 Dec 02:59:36 03:01:58 14° 61° (ENE) 03:04:20 437.345
MOZHAYETS 4 04 Dec 03:00:50 03:05:26 87° 76° (ENE) 03:10:03
SWISSCUBE 04 Dec 03:08:15 03:11:39 19° 268° (W) 03:15:04 437.505
BEESAT 04 Dec 03:12:32 03:15:57 19° 267° (W) 03:19:24 436.000
GONETS M04 04 Dec 03:17:35 03:24:04 23° 299° (WNW) 03:30:35
Gurwin Techsat 1B 04 Dec 03:23:55 03:28:32 31° 295° (WNW) 03:33:09 435.225
O/OREOS (USA 219) 04 Dec 03:37:09 03:39:59 17° 260° (W) 03:42:49 437.305
ITUPSAT 1 04 Dec 03:41:06 03:42:20 11° 272° (W) 03:43:34 437.325
SO-50 04 Dec 03:46:48 03:49:44 17° 35° (NE) 03:52:38 436.795
KKS-1 04 Dec 03:48:28 03:52:54 67° 258° (WSW) 03:57:23 437.445
Oscar 19 04 Dec 03:49:39 03:50:55 11° 305° (NW) 03:52:10 437.125/150
PHONESAT 2.4 04 Dec 03:58:48 04:01:18 36° 182° (S) 04:03:47 2401.200-2431.200
STARS 04 Dec 04:00:59 04:05:25 80° 75° (ENE) 04:09:53 437.465
ITAMSAT 1 04 Dec 04:09:50 04:14:47 46° 291° (WNW) 04:19:42 435.822/435.867
AO-85 04 Dec 04:21:11 04:24:57 23° 318° (NW) 04:28:32 145.980
CUBESAT XI-V 04 Dec 04:34:11 04:38:46 71° 259° (W) 04:43:23 437.345
AO-7 04 Dec 04:45:34 04:53:52 68° 294° (WNW) 05:02:08 29.400- 29.500
GOMX 1 04 Dec 04:51:08 04:54:35 17° 89° (E) 04:58:02 467.674
HORYU 2 04 Dec 04:53:08 04:56:42 23° 94° (E) 05:00:14 437.375
YUBILEINY 04 Dec 04:53:11 04:59:52 23° 62° (ENE) 05:06:29 435.215
BRITE-PL 04 Dec 05:02:01 05:07:08 44° 98° (E) 05:12:29 437.365/2234.400
BEESAT 3 04 Dec 05:12:48 05:16:10 28° 115° (ESE) 05:19:34 437.485
DOVE 4 04 Dec 05:15:00 05:16:35 11° 85° (E) 05:18:10 437.250
LilacSat-2 04 Dec 05:22:17 05:23:45 12° 90° (E) 05:25:12 437.200
Cosmos 2491 04 Dec 05:26:16 05:30:31 15° 73° (ENE) 05:34:47 435.465 / 435.565
SO-50 04 Dec 05:26:19 05:30:53 89° 69° (ENE) 05:35:21 436.795
CUTE-I 04 Dec 05:27:55 05:31:27 18° 91° (E) 05:34:57 437.470
Cosmos 2504 04 Dec 05:32:32 05:38:42 20° 59° (ENE) 05:44:40 435.465 / 435.565
PHONESAT 2.4 04 Dec 05:34:10 05:36:12 20° 198° (SSW) 05:38:15 2401.200-2431.200
BEESAT 2 04 Dec 05:37:12 05:40:23 24° 114° (ESE) 05:43:35 435.950
STRAND 1 04 Dec 05:39:08 05:43:17 26° 64° (ENE) 05:47:28 437.568
STARS 04 Dec 05:41:36 05:42:19 10° 272° (W) 05:43:03 437.465
Cubesat XI-IV 04 Dec 05:52:20 05:56:57 29° 95° (E) 06:01:31 437.490
NOAA 15 04 Dec 05:57:18 06:02:08 35° 97° (E) 06:06:57 137.62
RS-15 04 Dec 06:03:42 06:11:22 20° 97° (E) 06:19:11 29.354- 29.394
GOMX 1 04 Dec 06:27:42 06:33:08 72° 285° (WNW) 06:38:36 467.674
HORYU 2 04 Dec 06:29:17 06:33:20 35° 292° (WNW) 06:37:22 437.375
AO-7 04 Dec 06:40:02 06:45:10 18° 315° (NW) 06:50:18 29.400- 29.500
BRITE-PL 04 Dec 06:40:55 06:45:24 28° 294° (WNW) 06:50:04 437.365/2234.400
CINEMA 3 04 Dec 06:48:09 06:51:56 22° 91° (E) 06:55:34 145.822/145.860
YUBILEINY 04 Dec 06:48:58 06:57:49 85° 264° (W) 07:06:40 435.215
DOVE 4 04 Dec 06:49:40 06:55:02 85° 103° (ESE) 07:00:15 437.250
BEESAT 3 04 Dec 06:50:15 06:53:43 30° 313° (NW) 06:57:16 437.485
LilacSat-2 04 Dec 06:54:40 06:58:22 50° 286° (WNW) 07:02:00 437.200
NOAA 18 04 Dec 06:56:49 07:02:22 68° 103° (ESE) 07:07:51 137.9125
AIST 1 04 Dec 06:59:31 07:03:53 57° 79° (E) 07:08:13
CUTE-I 04 Dec 07:06:40 07:11:57 64° 289° (WNW) 07:17:12 437.470
SO-50 04 Dec 07:09:36 07:10:36 11° 253° (WSW) 07:11:35 436.795
BEESAT 2 04 Dec 07:14:21 07:18:00 35° 312° (NW) 07:21:43 435.950
Cosmos 2491 04 Dec 07:17:00 07:25:44 74° 94° (E) 07:34:28 435.465 / 435.565
STRAND 1 04 Dec 07:17:19 07:22:13 44° 261° (W) 07:27:08 437.568
CUBEBUG 2 04 Dec 07:22:47 07:24:14 11° 87° (E) 07:25:40 437.445
Cosmos 2504 04 Dec 07:24:39 07:33:35 84° 82° (E) 07:42:01 435.465 / 435.565
HO-68 04 Dec 07:30:25 07:37:10 41° 98° (E) 07:43:52 435.675
Cubesat XI-IV 04 Dec 07:32:10 07:37:07 40° 293° (WNW) 07:42:02 437.490
CUTE 1.7 + AOD 2 04 Dec 07:33:16 07:37:09 35° 97° (E) 07:41:01 437.475
NOAA 15 04 Dec 07:37:12 07:41:50 32° 294° (WNW) 07:46:29 137.62
AIST 2 04 Dec 07:46:00 07:48:20 15° 110° (ESE) 07:50:42 435.215
CANX-2 04 Dec 07:50:36 07:54:48 64° 101° (ESE) 07:58:58 2200.000
Oscar 11 04 Dec 08:03:03 08:03:42 10° 88° (E) 08:04:21 145.826/435.025
AAUSAT CUBESAT 2 04 Dec 08:07:33 08:11:12 29° 96° (E) 08:14:51 437.432
UWE-3 04 Dec 08:08:16 08:11:42 22° 93° (E) 08:15:02 435.000/436.395/437.385
GOMX 1 04 Dec 08:08:22 08:10:17 12° 303° (WNW) 08:12:12 467.674
RS-15 04 Dec 08:09:56 08:21:40 78° 120° (ESE) 08:33:59 29.354- 29.394
UNISAT 6 04 Dec 08:19:31 08:22:33 17° 62° (ENE) 08:25:34 437.425
SEEDS 04 Dec 08:20:37 08:24:49 82° 102° (ESE) 08:29:00 437.485
CINEMA 3 04 Dec 08:24:38 08:29:15 43° 290° (WNW) 08:33:40 145.822/145.860
PRISM 04 Dec 08:24:56 08:28:59 74° 73° (ENE) 08:33:04 437.425
DOVE 4 04 Dec 08:29:00 08:31:57 15° 301° (WNW) 08:34:52 437.250
COMPASS 1 04 Dec 08:35:13 08:39:22 79° 101° (E) 08:43:32 437.405
NOAA 18 04 Dec 08:38:35 08:42:29 20° 301° (WNW) 08:46:20 137.9125
AIST 1 04 Dec 08:38:46 08:40:56 14° 276° (W) 08:43:07
YUBILEINY 04 Dec 08:47:53 08:53:14 18° 284° (WNW) 08:58:35 435.215
TIGRISAT 04 Dec 08:48:57 08:53:01 30° 68° (ENE) 08:57:04 435.000
ANTELSAT 04 Dec 08:49:45 08:53:54 32° 68° (ENE) 08:58:02 437.575/2403.000
ZACube-1 04 Dec 08:53:49 08:57:53 41° 98° (E) 09:01:51 437.345
CUBEBUG 2 04 Dec 08:56:57 09:01:25 70° 285° (WNW) 09:05:41 437.445
JAS-2 04 Dec 08:58:45 09:01:41 14° 57° (ENE) 09:04:29 435.910
FUNcube-1 04 Dec 09:02:44 09:06:53 48° 99° (E) 09:10:54 145.935
CUTE 1.7 + AOD 2 04 Dec 09:09:32 09:12:47 22° 294° (WNW) 09:16:01 437.475
Cosmos 2491 04 Dec 09:16:22 09:23:27 27° 296° (WNW) 09:30:34 435.465 / 435.565
HO-68 04 Dec 09:18:12 09:24:53 43° 296° (WNW) 09:31:33 435.675
Cosmos 2504 04 Dec 09:19:36 09:25:48 22° 283° (WNW) 09:31:49 435.465 / 435.565
AIST 2 04 Dec 09:22:16 09:26:20 58° 308° (NW) 09:30:28 435.215
DELFI C3 04 Dec 09:24:51 09:28:20 29° 96° (E) 09:31:50 145.870
CANX-2 04 Dec 09:28:09 09:30:08 13° 298° (WNW) 09:32:07 2200.000
CUSAT 1 04 Dec 09:29:56 09:33:02 36° 98° (E) 09:35:40 437.405
QB50P2 04 Dec 09:30:20 09:31:19 11° 59° (ENE) 09:32:18 145.880/145.840
AO-85 04 Dec 09:31:07 09:32:37 12° 32° (NNE) 09:34:06 145.980
POLYITAN 1 04 Dec 09:31:18 09:31:56 10° 59° (ENE) 09:32:33 437.675
Oscar 11 04 Dec 09:36:03 09:40:22 76° 283° (WNW) 09:44:38 145.826/435.025
AAUSAT CUBESAT 2 04 Dec 09:43:10 09:46:33 25° 293° (WNW) 09:49:56 437.432
QB50P1 04 Dec 09:43:20 09:45:31 14° 62° (ENE) 09:47:43 145.935-145.965
UWE-3 04 Dec 09:44:18 09:48:15 34° 291° (WNW) 09:52:05 435.000/436.395/437.385
DUCHIFAT 1 04 Dec 09:48:39 09:50:44 13° 61° (ENE) 09:52:49 145.980
UNISAT 6 04 Dec 09:54:10 09:58:49 59° 260° (W) 10:03:25 437.425
DANDE 04 Dec 09:54:24 09:58:16 24° 96° (E) 10:01:23 436.750
SEEDS 04 Dec 09:58:59 09:59:52 11° 300° (WNW) 10:00:46 437.485
POPSAT HIP 1 04 Dec 10:03:24 10:06:39 21° 65° (ENE) 10:09:54 437.405
COMPASS 1 04 Dec 10:13:19 10:14:18 11° 300° (WNW) 10:15:17 437.405
RS-15 04 Dec 10:24:13 10:35:25 42° 327° (NNW) 10:47:01 29.354- 29.394
TIGRISAT 04 Dec 10:25:27 10:29:38 31° 264° (W) 10:33:48 435.000
ANTELSAT 04 Dec 10:26:30 10:30:34 29° 265° (W) 10:34:39 437.575/2403.000
ZACube-1 04 Dec 10:30:51 10:33:52 19° 296° (WNW) 10:36:50 437.345
Cosmos 2499 04 Dec 10:31:08 10:37:55 24° 62° (ENE) 10:44:21 435.465 / 435.565
JAS-2 04 Dec 10:39:27 10:46:02 79° 74° (ENE) 10:51:52 435.910
FUNcube-1 04 Dec 10:40:01 10:42:43 17° 297° (WNW) 10:45:24 145.935
HUMSAT D 04 Dec 10:40:03 10:44:08 75° 285° (WNW) 10:48:11 437.325/437.525
BUGSAT 1 04 Dec 10:52:25 10:55:50 24° 66° (ENE) 10:59:16 437.445
NANOSAT C BR1 04 Dec 10:58:19 11:02:34 76° 76° (ENE) 11:06:52 145.865
DELFI C3 04 Dec 10:59:51 11:03:02 23° 293° (WNW) 11:06:12 145.870
QB50P2 04 Dec 11:02:08 11:06:26 86° 258° (WSW) 11:10:44 145.880/145.840
POLYITAN 1 04 Dec 11:02:44 11:07:01 89° 270° (W) 11:11:21 437.675
AIST 2 04 Dec 11:04:24 11:05:43 11° 328° (NNW) 11:07:01 435.215
AO-85 04 Dec 11:09:50 11:13:50 70° 53° (NE) 11:17:42 145.980
QB50P1 04 Dec 11:16:31 11:20:46 64° 258° (WSW) 11:25:03 145.935-145.965
ESTCUBE 1 04 Dec 11:20:30 11:24:47 41° 98° (E) 11:29:03 437.505/2401.250
DUCHIFAT 1 04 Dec 11:21:39 11:25:53 66° 258° (WSW) 11:30:09 145.980
50 SAT 04 Dec 11:24:45 11:26:27 13° 92° (E) 11:28:10 437.505
GONETS M04 04 Dec 11:25:54 11:34:13 46° 73° (ENE) 11:42:30
SPROUT 04 Dec 11:26:20 11:28:20 13° 90° (E) 11:30:19 437.525
Gurwin Techsat 1B 04 Dec 11:31:16 11:32:27 11° 54° (NE) 11:33:39 435.225
AISAT 04 Dec 11:35:55 11:39:43 26° 95° (E) 11:43:29 437.250
DANDE 04 Dec 11:36:58 11:40:52 26° 284° (WNW) 11:44:01 436.750
POPSAT HIP 1 04 Dec 11:38:10 11:42:11 38° 262° (W) 11:46:13 437.405
PCSat 04 Dec 11:43:30 11:48:40 47° 114° (ESE) 11:53:51 145.827
Oscar 19 04 Dec 11:47:34 11:51:46 26° 64° (ENE) 11:55:59 437.125/150
CUBEBUG 1 04 Dec 12:06:53 12:11:22 79° 105° (ESE) 12:15:48 437.445
AO-7 04 Dec 12:08:06 12:10:57 12° 38° (NE) 12:13:49 29.400- 29.500
VELOX 1 04 Dec 12:12:32 12:16:59 60° 101° (ESE) 12:21:23 145.980
Cosmos 2499 04 Dec 12:23:25 12:32:09 80° 265° (W) 12:40:14 435.465 / 435.565
BUGSAT 1 04 Dec 12:27:15 12:31:02 32° 263° (W) 12:34:53 437.445
JAS-2 04 Dec 12:27:34 12:31:34 17° 269° (W) 12:35:20 435.910
DX 1 04 Dec 12:32:30 12:36:49 52° 100° (E) 12:41:06 434.975-435.025
NANOSAT C BR1 04 Dec 12:38:13 12:38:48 10° 272° (W) 12:39:24 145.865
RS-15 04 Dec 12:42:18 12:52:23 28° 0° (N) 13:02:33 29.354- 29.394
UKube-1 04 Dec 12:43:33 12:47:48 51° 100° (E) 12:52:01 .
AO-85 04 Dec 12:52:49 12:53:35 10° 252° (WSW) 12:54:21 145.980
TISAT 1 04 Dec 12:54:21 12:57:25 19° 93° (E) 13:00:27 437.305
50 SAT 04 Dec 12:56:36 12:59:58 41° 288° (WNW) 13:03:19 437.505
ESTCUBE 1 04 Dec 12:57:54 13:01:20 22° 295° (WNW) 13:04:45 437.505/2401.250
SPROUT 04 Dec 13:00:24 13:04:40 61° 286° (WNW) 13:08:53 437.525
Gurwin Techsat 1B 04 Dec 13:06:09 13:11:25 69° 73° (ENE) 13:16:44 435.225
AISAT 04 Dec 13:12:12 13:16:11 32° 292° (WNW) 13:20:09 437.250
GONETS M04 04 Dec 13:22:59 13:30:56 42° 274° (W) 13:38:54
Oscar 19 04 Dec 13:26:02 13:30:52 42° 262° (W) 13:35:45 437.125/150
PCSat 04 Dec 13:27:28 13:32:14 31° 313° (NW) 13:37:02 145.827
BEESAT 3 04 Dec 13:27:59 13:31:31 29° 46° (NE) 13:35:02 437.485
SWISSCUBE 04 Dec 13:30:20 13:31:24 11° 88° (E) 13:32:29 437.505
BEESAT 04 Dec 13:34:41 13:35:40 11° 88° (E) 13:36:38 436.000
CUBEBUG 1 04 Dec 13:45:14 13:47:00 12° 300° (WNW) 13:48:46 437.445
ITAMSAT 1 04 Dec 13:50:03 13:54:56 43° 69° (ENE) 13:59:51 435.822/435.867
VELOX 1 04 Dec 13:50:18 13:52:57 16° 299° (WNW) 13:55:36 145.980
BEESAT 2 04 Dec 13:53:02 13:56:29 26° 45° (NE) 13:59:55 435.950
AO-7 04 Dec 13:53:53 14:01:39 46° 61° (ENE) 14:09:27 29.400- 29.500
ITUPSAT 1 04 Dec 13:58:59 14:02:23 19° 92° (E) 14:05:45 437.325
DX 1 04 Dec 14:09:44 14:12:35 17° 298° (WNW) 14:15:27 434.975-435.025
AUBIESAT-1 04 Dec 14:18:19 14:22:08 25° 99° (E) 14:25:51 437.475
Cosmos 2499 04 Dec 14:18:53 14:23:42 17° 286° (WNW) 14:28:22 435.465 / 435.565
UKube-1 04 Dec 14:20:38 14:23:26 17° 298° (WNW) 14:26:15 .
M-CUBED/EXP-1 PRIME 04 Dec 14:28:32 14:32:57 39° 102° (ESE) 14:37:14 437.505
TISAT 1 04 Dec 14:29:14 14:33:12 39° 290° (WNW) 14:37:08 437.305
Gurwin Techsat 1B 04 Dec 14:48:36 14:51:53 16° 270° (W) 14:55:11 435.225
MOZHAYETS 4 04 Dec 14:55:17 14:58:25 18° 92° (E) 15:01:31
RS-15 04 Dec 14:57:43 15:09:21 43° 34° (NE) 15:20:45 29.354- 29.394
SWISSCUBE 04 Dec 15:05:02 15:09:49 85° 284° (WNW) 15:14:34 437.505
BEESAT 3 04 Dec 15:05:37 15:09:07 29° 244° (WSW) 15:12:34 437.485
BEESAT 04 Dec 15:09:17 15:14:04 86° 289° (WNW) 15:18:49 436.000
ITAMSAT 1 04 Dec 15:30:13 15:34:33 26° 266° (W) 15:38:54 435.822/435.867
BEESAT 2 04 Dec 15:30:38 15:34:20 35° 243° (WSW) 15:38:00 435.950
ITUPSAT 1 04 Dec 15:35:52 15:40:29 49° 289° (WNW) 15:45:03 437.325
KKS-1 04 Dec 15:38:33 15:41:57 21° 93° (E) 15:45:19 437.445
NOAA 15 04 Dec 15:44:58 15:45:07 10° 54° (NE) 15:45:15 137.62
AO-7 04 Dec 15:46:36 15:54:25 45° 260° (W) 16:02:19 29.400- 29.500
STARS 04 Dec 15:50:40 15:52:42 13° 90° (E) 15:54:42 437.465
AUBIESAT-1 04 Dec 15:52:19 15:56:36 38° 296° (WNW) 16:00:45 437.475
HORYU 2 04 Dec 15:52:23 15:56:09 27° 66° (ENE) 15:59:56 437.375
GOMX 1 04 Dec 16:01:12 16:04:17 18° 61° (ENE) 16:07:30 467.674
M-CUBED/EXP-1 PRIME 04 Dec 16:03:17 16:07:12 27° 300° (WNW) 16:11:02 437.505
AIST 2 04 Dec 16:04:19 16:07:31 20° 41° (NE) 16:10:42 435.215
O/OREOS (USA 219) 04 Dec 16:10:13 16:14:34 45° 108° (ESE) 16:18:55 437.305
BRITE-PL 04 Dec 16:14:55 16:19:03 50° 72° (ENE) 16:23:28 437.365/2234.400
DOVE 4 04 Dec 16:21:37 16:23:57 13° 58° (ENE) 16:26:20 437.250
CUBESAT XI-V 04 Dec 16:29:32 16:33:24 25° 94° (E) 16:37:16 437.345
MOZHAYETS 4 04 Dec 16:31:27 16:35:50 48° 289° (WNW) 16:40:12
SWISSCUBE 04 Dec 16:45:22 16:46:50 11° 303° (WNW) 16:48:19 437.505
NOAA 18 04 Dec 16:45:48 16:50:02 23° 60° (ENE) 16:54:17 137.9125
BEESAT 04 Dec 16:49:32 16:51:05 12° 303° (WNW) 16:52:39 436.000
CUTE-I 04 Dec 16:50:40 16:55:28 34° 66° (ENE) 17:00:16 437.470
